{"data":{"norad_id":69766,"epoch":"2026-09-19T07:21:47.742048Z","epoch_age_seconds":129750,"freshness":"FRESH","line1":"1 69766U 26151D   26262.30680257  .00000323  00000+0  71339-4 0  9992","line2":"2 69766  51.8992 236.9541 0001092  33.9952 326.1080 14.79929813 11963","mean_motion":14.79929813,"eccentricity":0.0001092,"inclination_deg":51.8992,"raan_deg":236.9541,"arg_perigee_deg":33.9952,"mean_anomaly_deg":326.108,"bstar":7.1339e-5,"rev_number":1196,"period_min":97.301911708971,"perigee_km":628.78045081259,"apogee_km":630.31092871203,"semimajor_km":7007.6826897623,"source":"CELESTRAK","updated_at":"2026-09-20T09:00:25.088201Z"}}